Location: Jackson Park
(37.2862°N, 79.9123°W)
Time: 20:45:13
(UTC+00:00)

Vanguard 2 Rocket - Pass Details

Date: 14 May 2026
Orbit: 553 x 3286 km, 32.9° (Epoch: 6 June)

Event Time Altitude Azimuth Distance (km) Brightness Sun altitude
Rises 14:13:46 0° 207° (SSW) 4,592 10.4 46.2°
Reaches altitude 10° 14:16:48 10° 197° (SSW) 3,954 10.2 46.8°
Maximum altitude 14:26:26 33° 138° (SE) 3,396 11.1 48.7°
Drops below altitude 10° 14:40:44 10° 83° (E) 5,914 11.8 51.4°
Sets 14:46:31 0° 76° (ENE) 7,154 11.9 52.5°
